Time,TemperatureF,DewpointF,PressureIn,WindDirection,WindDirectionDegrees,WindSpeedMPH,WindSpeedGustMPH,Humidity,HourlyPrecipIn,Conditions,Clouds,dailyrainin,SoftwareType,DateUTC
2013-06-11 00:00:00,80.2,76.3,30.01,WSW,240,0.0,0.0,88,0.00,,,0.00,meteohub,2013-06-11 04:00:00,
2013-06-11 00:01:00,80.1,76.1,30.01,WSW,240,0.0,0.0,88,0.00,,,0.00,meteohub,2013-06-11 04:01:00,
2013-06-11 00:02:00,80.1,76.1,30.01,WSW,240,0.0,0.0,88,0.00,,,0.00,meteohub,2013-06-11 04:02:00,
2013-06-11 00:05:00,80.1,76.1,30.01,WSW,240,0.0,0.0,88,0.00,,,0.00,meteohub,2013-06-11 04:05:00,
2013-06-11 00:06:00,80.1,76.1,30.01,WSW,240,0.0,0.0,88,0.00,,,0.00,meteohub,2013-06-11 04:06:00,
2013-06-11 00:11:00,79.9,76.3,30.01,WSW,240,0.0,0.0,89,0.00,,,0.00,meteohub,2013-06-11 04:11:00,
2013-06-11 00:17:00,79.7,76.1,30.01,WSW,240,0.0,0.0,89,0.00,,,0.00,meteohub,2013-06-11 04:17:00,
2013-06-11 00:22:00,79.7,76.1,30.01,WSW,240,0.0,0.0,89,0.00,,,0.00,meteohub,2013-06-11 04:22:00,
2013-06-11 00:27:00,79.7,76.5,30.01,WSW,240,0.0,0.0,90,0.00,,,0.00,meteohub,2013-06-11 04:27:00,
2013-06-11 00:32:00,79.7,76.5,30.01,WSW,240,0.0,0.0,90,0.00,,,0.00,meteohub,2013-06-11 04:32:00,
2013-06-11 00:37:00,79.7,76.5,30.01,WSW,240,0.0,0.0,90,0.00,,,0.00,meteohub,2013-06-11 04:37:00,
2013-06-11 00:42:00,79.7,76.5,30.01,WSW,240,0.0,0.0,90,0.00,,,0.00,meteohub,2013-06-11 04:42:00,
2013-06-11 00:47:00,79.7,76.5,30.01,WSW,240,0.0,0.0,90,0.00,,,0.00,meteohub,2013-06-11 04:47:00,
2013-06-11 00:52:00,79.9,76.6,30.01,WSW,240,0.0,0.0,90,0.00,,,0.00,meteohub,2013-06-11 04:52:00,
2013-06-11 00:57:00,79.9,76.6,30.01,WSW,240,0.0,0.0,90,0.00,,,0.00,meteohub,2013-06-11 04:57:00,
2013-06-11 01:03:00,79.9,76.6,30.01,WSW,240,0.0,0.0,90,0.00,,,0.00,meteohub,2013-06-11 05:03:00,
2013-06-11 01:08:00,79.9,76.6,30.01,WSW,240,0.0,0.0,90,0.00,,,0.00,meteohub,2013-06-11 05:08:00,
2013-06-11 01:13:00,79.9,76.6,30.01,WSW,240,0.0,0.0,90,0.00,,,0.00,meteohub,2013-06-11 05:13:00,
2013-06-11 01:18:00,79.9,76.6,30.01,WSW,240,0.0,0.0,90,0.00,,,0.00,meteohub,2013-06-11 05:18:00,
2013-06-11 01:23:00,79.7,76.5,30.01,WSW,240,0.0,0.0,90,0.00,,,0.00,meteohub,2013-06-11 05:23:00,
2013-06-11 01:28:00,79.5,76.3,30.01,WSW,240,0.0,0.0,90,0.00,,,0.00,meteohub,2013-06-11 05:28:00,
2013-06-11 01:33:00,79.5,76.3,30.01,WSW,240,0.0,0.0,90,0.00,,,0.00,meteohub,2013-06-11 05:33:00,
2013-06-11 01:38:00,79.3,76.5,30.01,WSW,240,0.0,0.0,91,0.00,,,0.00,meteohub,2013-06-11 05:38:00,
2013-06-11 01:43:00,79.2,76.3,30.01,WSW,240,0.0,0.0,91,0.00,,,0.00,meteohub,2013-06-11 05:43:00,
2013-06-11 01:48:00,79.2,76.3,30.01,WSW,240,0.0,0.0,91,0.00,,,0.00,meteohub,2013-06-11 05:48:00,
2013-06-11 01:53:00,79.0,76.1,30.00,WSW,240,0.0,0.0,91,0.00,,,0.00,meteohub,2013-06-11 05:53:00,
2013-06-11 01:58:00,79.0,76.1,30.00,WSW,240,0.0,0.0,91,0.00,,,0.00,meteohub,2013-06-11 05:58:00,
2013-06-11 02:03:00,78.8,76.3,30.00,WSW,240,0.0,0.0,92,0.00,,,0.00,meteohub,2013-06-11 06:03:00,
2013-06-11 02:09:00,78.6,76.1,30.01,WSW,240,0.0,0.0,92,0.00,,,0.00,meteohub,2013-06-11 06:09:00,
2013-06-11 02:14:00,78.6,76.1,30.01,WSW,240,0.0,0.0,92,0.00,,,0.00,meteohub,2013-06-11 06:14:00,
2013-06-11 02:19:00,78.6,76.1,30.01,WSW,240,0.0,0.0,92,0.00,,,0.00,meteohub,2013-06-11 06:19:00,
2013-06-11 02:24:00,78.6,76.1,30.01,WSW,240,0.0,0.0,92,0.00,,,0.00,meteohub,2013-06-11 06:24:00,
2013-06-11 02:29:00,78.6,76.1,30.01,WSW,240,0.0,0.0,92,0.00,,,0.00,meteohub,2013-06-11 06:29:00,
2013-06-11 02:34:00,78.4,75.9,30.01,WSW,240,0.0,0.0,92,0.00,,,0.00,meteohub,2013-06-11 06:34:00,
2013-06-11 02:40:00,78.4,75.9,30.01,WSW,240,0.0,0.0,92,0.00,,,0.00,meteohub,2013-06-11 06:40:00,
2013-06-11 02:45:00,78.6,76.5,30.01,WSW,240,0.0,0.0,93,0.00,,,0.00,meteohub,2013-06-11 06:45:00,
2013-06-11 02:50:00,78.4,76.3,30.01,WSW,240,0.0,0.0,93,0.00,,,0.00,meteohub,2013-06-11 06:50:00,
2013-06-11 02:55:00,78.4,75.9,30.01,WSW,240,0.0,0.0,92,0.00,,,0.00,meteohub,2013-06-11 06:55:00,
2013-06-11 03:00:00,78.4,76.3,30.01,WSW,240,0.0,0.0,93,0.00,,,0.00,meteohub,2013-06-11 07:00:00,
2013-06-11 03:06:00,78.4,76.3,30.01,WSW,240,0.0,0.0,93,0.00,,,0.00,meteohub,2013-06-11 07:06:00,
2013-06-11 03:11:00,78.3,76.1,30.01,WSW,240,0.0,0.0,93,0.00,,,0.00,meteohub,2013-06-11 07:11:00,
2013-06-11 03:16:00,78.3,76.1,30.01,WSW,240,0.0,0.0,93,0.00,,,0.00,meteohub,2013-06-11 07:16:00,
2013-06-11 03:21:00,78.3,76.1,30.00,WSW,240,0.0,0.0,93,0.00,,,0.00,meteohub,2013-06-11 07:21:00,
2013-06-11 03:26:00,78.3,76.1,30.01,WSW,240,0.0,0.0,93,0.00,,,0.00,meteohub,2013-06-11 07:26:00,
2013-06-11 03:31:00,78.1,75.9,30.00,WSW,240,0.0,0.0,93,0.00,,,0.00,meteohub,2013-06-11 07:31:00,
2013-06-11 03:36:00,77.9,75.7,30.01,WSW,240,0.0,0.0,93,0.00,,,0.00,meteohub,2013-06-11 07:36:00,
2013-06-11 03:41:00,77.9,75.7,30.00,WSW,240,0.0,0.0,93,0.00,,,0.00,meteohub,2013-06-11 07:41:00,
2013-06-11 03:46:00,77.7,75.6,30.01,WSW,240,0.0,0.0,93,0.00,,,0.00,meteohub,2013-06-11 07:46:00,
2013-06-11 03:51:00,77.7,75.6,30.01,WSW,240,0.0,0.0,93,0.00,,,0.00,meteohub,2013-06-11 07:51:00,
2013-06-11 03:57:00,77.7,75.6,30.01,WSW,240,0.0,0.0,93,0.00,,,0.00,meteohub,2013-06-11 07:57:00,
2013-06-11 04:02:00,77.7,75.9,30.01,WSW,240,0.0,0.0,94,0.00,,,0.00,meteohub,2013-06-11 08:02:00,
2013-06-11 04:07:00,77.7,75.9,30.01,WSW,240,0.0,0.0,94,0.00,,,0.00,meteohub,2013-06-11 08:07:00,
2013-06-11 04:12:00,77.7,75.6,30.01,WSW,240,0.0,0.0,93,0.00,,,0.00,meteohub,2013-06-11 08:12:00,
2013-06-11 04:17:00,77.5,75.7,30.01,WSW,240,0.0,0.0,94,0.00,,,0.00,meteohub,2013-06-11 08:17:00,
2013-06-11 04:22:00,77.5,75.7,30.01,WSW,240,0.0,0.0,94,0.00,,,0.00,meteohub,2013-06-11 08:22:00,
2013-06-11 04:27:00,77.5,75.7,30.01,WSW,240,0.0,0.0,94,0.00,,,0.00,meteohub,2013-06-11 08:27:00,
2013-06-11 04:32:00,77.5,75.7,30.01,WSW,240,0.0,0.0,94,0.00,,,0.00,meteohub,2013-06-11 08:32:00,
2013-06-11 04:37:00,77.5,75.7,30.01,WSW,240,0.0,0.0,94,0.00,,,0.00,meteohub,2013-06-11 08:37:00,
2013-06-11 04:42:00,77.5,75.7,30.01,WSW,240,0.0,0.0,94,0.00,,,0.00,meteohub,2013-06-11 08:42:00,
2013-06-11 04:47:00,77.5,75.7,30.01,WSW,240,0.0,0.0,94,0.00,,,0.00,meteohub,2013-06-11 08:47:00,
2013-06-11 04:52:00,77.5,75.7,30.01,WSW,240,0.0,0.0,94,0.00,,,0.00,meteohub,2013-06-11 08:52:00,
2013-06-11 04:57:00,77.5,75.7,30.02,WSW,240,0.0,0.0,94,0.00,,,0.00,meteohub,2013-06-11 08:57:00,
2013-06-11 05:02:00,77.5,75.7,30.02,WSW,240,0.0,0.0,94,0.00,,,0.00,meteohub,2013-06-11 09:02:00,
2013-06-11 05:07:00,77.5,75.7,30.02,WSW,240,0.0,0.0,94,0.00,,,0.00,meteohub,2013-06-11 09:07:00,
2013-06-11 05:12:00,77.4,75.6,30.02,WSW,240,0.0,0.0,94,0.00,,,0.00,meteohub,2013-06-11 09:12:00,
2013-06-11 05:17:00,77.4,75.6,30.02,WSW,240,0.0,0.0,94,0.00,,,0.00,meteohub,2013-06-11 09:17:00,
2013-06-11 05:22:00,77.4,75.6,30.02,WSW,240,0.0,0.0,94,0.00,,,0.00,meteohub,2013-06-11 09:22:00,
2013-06-11 05:27:00,77.4,75.6,30.03,WSW,240,0.0,0.0,94,0.00,,,0.00,meteohub,2013-06-11 09:27:00,
2013-06-11 05:32:00,77.4,75.6,30.03,WSW,240,0.0,0.0,94,0.00,,,0.00,meteohub,2013-06-11 09:32:00,
2013-06-11 05:37:00,77.4,75.6,30.03,WSW,240,0.0,0.0,94,0.00,,,0.00,meteohub,2013-06-11 09:37:00,
2013-06-11 05:42:00,77.4,75.6,30.03,WSW,240,0.0,0.0,94,0.00,,,0.00,meteohub,2013-06-11 09:42:00,
2013-06-11 05:47:00,77.2,75.4,30.03,WSW,240,0.0,0.0,94,0.00,,,0.00,meteohub,2013-06-11 09:47:00,
2013-06-11 05:53:00,77.2,75.4,30.03,WSW,240,0.0,0.0,94,0.00,,,0.00,meteohub,2013-06-11 09:53:00,
2013-06-11 05:58:00,77.2,75.4,30.03,WSW,240,0.0,0.0,94,0.00,,,0.00,meteohub,2013-06-11 09:58:00,
2013-06-11 06:03:00,77.2,75.6,30.03,WSW,240,0.0,0.0,95,0.00,,,0.00,meteohub,2013-06-11 10:03:00,
2013-06-11 06:08:00,77.2,75.6,30.03,WSW,240,0.0,0.0,95,0.00,,,0.00,meteohub,2013-06-11 10:08:00,
2013-06-11 06:13:00,77.2,75.6,30.03,WSW,240,0.0,0.0,95,0.00,,,0.00,meteohub,2013-06-11 10:13:00,
2013-06-11 06:18:00,77.2,75.6,30.03,WSW,240,0.0,0.0,95,0.00,,,0.00,meteohub,2013-06-11 10:18:00,
2013-06-11 06:23:00,77.2,75.6,30.04,WSW,240,0.0,0.0,95,0.00,,,0.00,meteohub,2013-06-11 10:23:00,
2013-06-11 06:28:00,77.2,75.6,30.04,WSW,240,0.0,0.0,95,0.00,,,0.00,meteohub,2013-06-11 10:28:00,
2013-06-11 06:34:00,77.2,75.6,30.04,WSW,240,0.0,0.0,95,0.00,,,0.00,meteohub,2013-06-11 10:34:00,
2013-06-11 06:39:00,77.2,75.6,30.04,WSW,240,0.0,0.0,95,0.00,,,0.00,meteohub,2013-06-11 10:39:00,
2013-06-11 06:44:00,77.2,75.6,30.04,WSW,240,0.0,0.0,95,0.00,,,0.00,meteohub,2013-06-11 10:44:00,
2013-06-11 06:49:00,77.0,75.4,30.04,WSW,240,0.0,0.0,95,0.00,,,0.00,meteohub,2013-06-11 10:49:00,
2013-06-11 06:54:00,76.8,75.2,30.05,WSW,240,0.0,0.0,95,0.00,,,0.00,meteohub,2013-06-11 10:54:00,
2013-06-11 07:00:00,76.8,75.2,30.05,WSW,240,0.0,0.0,95,0.00,,,0.00,meteohub,2013-06-11 11:00:00,
2013-06-11 07:05:00,76.8,75.2,30.05,WSW,240,0.0,0.0,95,0.00,,,0.00,meteohub,2013-06-11 11:05:00,
2013-06-11 07:10:00,76.8,75.2,30.05,WSW,240,0.0,0.0,95,0.00,,,0.00,meteohub,2013-06-11 11:10:00,
2013-06-11 07:15:00,76.8,75.2,30.05,WSW,240,0.0,0.0,95,0.00,,,0.00,meteohub,2013-06-11 11:15:00,
2013-06-11 07:20:00,76.8,75.2,30.04,WSW,240,0.0,0.0,95,0.00,,,0.00,meteohub,2013-06-11 11:20:00,
2013-06-11 07:25:00,76.8,75.2,30.05,WSW,240,0.0,0.0,95,0.00,,,0.00,meteohub,2013-06-11 11:25:00,
2013-06-11 07:30:00,77.0,75.4,30.05,WSW,240,0.0,0.0,95,0.00,,,0.00,meteohub,2013-06-11 11:30:00,
2013-06-11 07:35:00,77.2,75.6,30.05,WSW,240,0.0,0.0,95,0.00,,,0.00,meteohub,2013-06-11 11:35:00,
2013-06-11 07:40:00,77.4,75.7,30.05,WSW,240,0.0,0.0,95,0.00,,,0.00,meteohub,2013-06-11 11:40:00,
2013-06-11 07:46:00,77.5,75.9,30.05,WSW,240,0.0,0.0,95,0.00,,,0.00,meteohub,2013-06-11 11:46:00,
2013-06-11 07:51:00,77.5,75.9,30.05,WSW,240,0.0,0.0,95,0.00,,,0.00,meteohub,2013-06-11 11:51:00,
2013-06-11 07:56:00,77.7,76.1,30.05,WSW,240,0.0,0.0,95,0.00,,,0.00,meteohub,2013-06-11 11:56:00,
2013-06-11 08:01:00,77.7,76.1,30.05,WSW,240,0.0,0.0,95,0.00,,,0.00,meteohub,2013-06-11 12:01:00,
2013-06-11 08:06:00,78.1,76.5,30.05,WSW,240,0.0,0.0,95,0.00,,,0.00,meteohub,2013-06-11 12:06:00,
2013-06-11 08:11:00,78.3,76.6,30.06,WSW,240,0.0,0.0,95,0.00,,,0.00,meteohub,2013-06-11 12:11:00,
2013-06-11 08:16:00,78.4,76.8,30.06,WSW,240,0.0,0.0,95,0.00,,,0.00,meteohub,2013-06-11 12:16:00,
2013-06-11 08:21:00,78.6,77.0,30.06,WSW,240,0.0,0.0,95,0.00,,,0.00,meteohub,2013-06-11 12:21:00,
2013-06-11 08:26:00,79.2,77.5,30.06,WSW,240,0.0,0.0,95,0.00,,,0.00,meteohub,2013-06-11 12:26:00,
2013-06-11 08:31:00,79.3,77.5,30.06,WSW,240,0.0,0.0,94,0.00,,,0.00,meteohub,2013-06-11 12:31:00,
2013-06-11 08:36:00,79.7,77.9,30.06,WSW,240,0.0,0.0,94,0.00,,,0.00,meteohub,2013-06-11 12:36:00,
2013-06-11 08:41:00,79.9,78.1,30.06,WSW,240,0.0,0.0,94,0.00,,,0.00,meteohub,2013-06-11 12:41:00,
2013-06-11 08:46:00,80.2,78.1,30.06,WSW,240,0.0,0.0,93,0.00,,,0.00,meteohub,2013-06-11 12:46:00,
2013-06-11 08:51:00,80.6,78.1,30.07,WSW,240,0.0,0.0,92,0.00,,,0.00,meteohub,2013-06-11 12:51:00,
2013-06-11 08:57:00,80.8,78.3,30.07,WSW,240,0.0,0.0,92,0.00,,,0.00,meteohub,2013-06-11 12:57:00,
2013-06-11 09:02:00,81.0,78.1,30.07,WSW,240,0.0,0.0,91,0.00,,,0.00,meteohub,2013-06-11 13:02:00,
2013-06-11 09:07:00,81.3,78.4,30.07,WSW,240,0.0,0.0,91,0.00,,,0.00,meteohub,2013-06-11 13:07:00,
2013-06-11 09:12:00,81.7,78.4,30.07,WSW,240,0.0,0.0,90,0.00,,,0.00,meteohub,2013-06-11 13:12:00,
2013-06-11 09:17:00,81.9,78.6,30.07,WSW,240,0.0,0.0,90,0.00,,,0.00,meteohub,2013-06-11 13:17:00,
2013-06-11 09:22:00,82.0,78.4,30.08,WSW,240,0.0,0.0,89,0.00,,,0.00,meteohub,2013-06-11 13:22:00,
2013-06-11 09:27:00,82.0,78.1,30.08,WSW,240,0.0,0.0,88,0.00,,,0.00,meteohub,2013-06-11 13:27:00,
2013-06-11 09:32:00,82.2,78.3,30.07,WSW,240,0.0,0.0,88,0.00,,,0.00,meteohub,2013-06-11 13:32:00,
2013-06-11 09:37:00,82.4,78.1,30.08,WSW,240,0.0,0.0,87,0.00,,,0.00,meteohub,2013-06-11 13:37:00,
2013-06-11 09:42:00,82.8,78.4,30.08,WSW,240,0.0,0.0,87,0.00,,,0.00,meteohub,2013-06-11 13:42:00,
2013-06-11 09:48:00,82.6,77.9,30.08,WSW,240,0.0,0.0,86,0.00,,,0.00,meteohub,2013-06-11 13:48:00,
2013-06-11 09:53:00,82.8,78.1,30.08,WSW,240,0.0,0.0,86,0.00,,,0.00,meteohub,2013-06-11 13:53:00,
2013-06-11 09:58:00,82.8,78.1,30.08,SSE,155,0.0,0.0,86,0.00,,,0.00,meteohub,2013-06-11 13:58:00,
2013-06-11 10:03:00,82.9,77.9,30.08,SSE,155,0.0,0.0,85,0.00,,,0.00,meteohub,2013-06-11 14:03:00,
2013-06-11 10:08:00,83.1,77.7,30.08,SSE,155,0.0,0.0,84,0.00,,,0.00,meteohub,2013-06-11 14:08:00,
2013-06-11 10:13:00,83.7,78.3,30.08,SSE,155,0.0,0.0,84,0.00,,,0.00,meteohub,2013-06-11 14:13:00,
2013-06-11 10:18:00,83.5,77.4,30.08,SSE,155,0.0,0.0,82,0.00,,,0.00,meteohub,2013-06-11 14:18:00,
2013-06-11 10:24:00,83.3,77.2,30.08,SSE,155,0.0,0.0,82,0.00,,,0.00,meteohub,2013-06-11 14:24:00,
2013-06-11 10:29:00,83.1,77.4,30.08,SSE,155,0.0,0.0,83,0.00,,,0.00,meteohub,2013-06-11 14:29:00,
2013-06-11 10:34:00,83.5,77.0,30.08,South,191,0.0,0.0,81,0.00,,,0.00,meteohub,2013-06-11 14:34:00,
2013-06-11 10:39:00,83.8,77.0,30.08,South,191,0.0,0.0,80,0.00,,,0.00,meteohub,2013-06-11 14:39:00,
2013-06-11 10:44:00,84.4,77.2,30.08,SSW,202,0.0,0.0,79,0.00,,,0.00,meteohub,2013-06-11 14:44:00,
2013-06-11 10:49:00,84.6,77.0,30.08,SSW,202,0.0,0.0,78,0.00,,,0.00,meteohub,2013-06-11 14:49:00,
2013-06-11 10:54:00,85.3,77.2,30.08,SSW,192,0.0,0.0,77,0.00,,,0.00,meteohub,2013-06-11 14:54:00,
2013-06-11 11:00:00,85.6,76.5,30.08,SW,215,0.0,0.0,74,0.00,,,0.00,meteohub,2013-06-11 15:00:00,
2013-06-11 11:05:00,85.6,76.5,30.08,SSW,192,0.0,7.0,74,0.00,,,0.00,meteohub,2013-06-11 15:05:00,
2013-06-11 11:10:00,86.2,77.0,30.08,SSW,193,0.0,7.0,74,0.00,,,0.00,meteohub,2013-06-11 15:10:00,
2013-06-11 11:15:00,86.7,75.4,30.07,SSW,194,0.0,1.0,69,0.00,,,0.00,meteohub,2013-06-11 15:15:00,
2013-06-11 11:20:00,87.1,76.1,30.08,SSW,194,0.0,1.0,70,0.00,,,0.00,meteohub,2013-06-11 15:20:00,
2013-06-11 11:25:00,87.6,77.0,30.08,SSW,198,0.0,1.0,71,0.00,,,0.00,meteohub,2013-06-11 15:25:00,
2013-06-11 11:30:00,88.3,76.8,30.08,SSW,197,0.0,1.0,69,0.00,,,0.00,meteohub,2013-06-11 15:30:00,
2013-06-11 11:36:00,88.7,77.2,30.08,South,178,0.0,1.0,69,0.00,,,0.00,meteohub,2013-06-11 15:36:00,
2013-06-11 11:41:00,88.2,76.6,30.07,SE,145,0.0,5.0,69,0.00,,,0.00,meteohub,2013-06-11 15:41:00,
2013-06-11 11:46:00,88.0,77.0,30.07,SW,226,3.0,5.0,70,0.00,,,0.00,meteohub,2013-06-11 15:46:00,
2013-06-11 11:51:00,87.6,76.6,30.08,SSW,202,0.0,5.0,70,0.00,,,0.00,meteohub,2013-06-11 15:51:00,
2013-06-11 11:57:00,88.0,76.5,30.08,SW,224,0.0,4.0,69,0.00,,,0.00,meteohub,2013-06-11 15:57:00,
2013-06-11 12:02:00,88.2,75.7,30.08,SSW,202,0.0,4.0,67,0.00,,,0.00,meteohub,2013-06-11 16:02:00,
2013-06-11 12:07:00,88.2,74.8,30.08,WSW,241,2.0,4.0,65,0.00,,,0.00,meteohub,2013-06-11 16:07:00,
2013-06-11 12:12:00,88.0,76.1,30.08,SW,221,0.0,7.0,68,0.00,,,0.00,meteohub,2013-06-11 16:12:00,
2013-06-11 12:17:00,88.3,76.5,30.08,SW,236,0.0,7.0,68,0.00,,,0.00,meteohub,2013-06-11 16:17:00,
2013-06-11 12:22:00,89.1,76.3,30.08,West,261,0.0,7.0,66,0.00,,,0.00,meteohub,2013-06-11 16:22:00,
2013-06-11 12:27:00,89.8,76.5,30.08,SW,225,0.0,1.0,65,0.00,,,0.00,meteohub,2013-06-11 16:27:00,
2013-06-11 12:32:00,90.0,76.6,30.08,SSE,158,0.0,1.0,65,0.00,,,0.00,meteohub,2013-06-11 16:32:00,
2013-06-11 12:37:00,90.0,74.7,30.08,South,183,0.0,1.0,61,0.00,,,0.00,meteohub,2013-06-11 16:37:00,
2013-06-11 12:42:00,90.1,74.8,30.08,SW,231,0.0,6.0,61,0.00,,,0.00,meteohub,2013-06-11 16:42:00,
2013-06-11 12:47:00,90.7,75.9,30.08,WSW,238,0.0,6.0,62,0.00,,,0.00,meteohub,2013-06-11 16:47:00,
2013-06-11 12:52:00,91.2,75.4,30.08,WSW,238,0.0,6.0,60,0.00,,,0.00,meteohub,2013-06-11 16:52:00,
2013-06-11 12:57:00,91.2,74.8,30.08,South,173,2.0,2.0,59,0.00,,,0.00,meteohub,2013-06-11 16:57:00,
2013-06-11 13:02:00,91.0,75.7,30.08,ENE,71,0.0,5.0,61,0.00,,,0.00,meteohub,2013-06-11 17:02:00,
2013-06-11 13:07:00,90.9,74.1,30.07,SW,220,0.0,5.0,58,0.00,,,0.00,meteohub,2013-06-11 17:07:00,
2013-06-11 13:12:00,91.0,74.7,30.08,SSW,196,0.0,5.0,59,0.00,,,0.00,meteohub,2013-06-11 17:12:00,
2013-06-11 13:18:00,91.0,75.2,30.08,SSE,156,0.0,7.0,60,0.00,,,0.00,meteohub,2013-06-11 17:18:00,
2013-06-11 13:23:00,91.0,74.7,30.07,WSW,254,0.0,7.0,59,0.00,,,0.00,meteohub,2013-06-11 17:23:00,
2013-06-11 13:28:00,91.2,74.8,30.07,SSW,207,0.0,7.0,59,0.00,,,0.00,meteohub,2013-06-11 17:28:00,
2013-06-11 13:33:00,91.8,74.3,30.07,East,90,0.0,6.0,57,0.00,,,0.00,meteohub,2013-06-11 17:33:00,
2013-06-11 13:38:00,91.9,76.1,30.07,WSW,244,0.0,6.0,60,0.00,,,0.00,meteohub,2013-06-11 17:38:00,
2013-06-11 13:43:00,91.4,74.5,30.07,SW,236,0.0,5.0,58,0.00,,,0.00,meteohub,2013-06-11 17:43:00,
2013-06-11 13:48:00,91.6,74.1,30.07,South,174,0.0,5.0,57,0.00,,,0.00,meteohub,2013-06-11 17:48:00,
2013-06-11 13:53:00,91.6,75.2,30.07,SSW,207,0.0,4.0,59,0.00,,,0.00,meteohub,2013-06-11 17:53:00,
2013-06-11 13:59:00,91.2,74.8,30.07,South,171,0.0,5.0,59,0.00,,,0.00,meteohub,2013-06-11 17:59:00,
2013-06-11 14:04:00,91.6,75.7,30.07,West,273,0.0,6.0,60,0.00,,,0.00,meteohub,2013-06-11 18:04:00,
2013-06-11 14:09:00,92.1,75.2,30.06,WSW,238,0.0,6.0,58,0.00,,,0.00,meteohub,2013-06-11 18:09:00,
2013-06-11 14:14:00,92.8,76.5,30.06,WNW,302,0.0,6.0,59,0.00,,,0.00,meteohub,2013-06-11 18:14:00,
2013-06-11 14:19:00,93.4,75.9,30.07,South,169,0.0,5.0,57,0.00,,,0.00,meteohub,2013-06-11 18:19:00,
2013-06-11 14:25:00,92.8,76.8,30.06,SSE,160,0.0,5.0,60,0.00,,,0.00,meteohub,2013-06-11 18:25:00,
2013-06-11 14:30:00,93.6,77.0,30.06,SSE,165,0.0,5.0,59,0.00,,,0.00,meteohub,2013-06-11 18:30:00,
2013-06-11 14:35:00,94.5,76.8,30.06,WNW,291,0.0,5.0,57,0.00,,,0.00,meteohub,2013-06-11 18:35:00,
2013-06-11 14:40:00,94.5,76.8,30.06,North,0,0.0,5.0,57,0.00,,,0.00,meteohub,2013-06-11 18:40:00,
2013-06-11 14:46:00,95.2,77.0,30.06,WSW,247,0.0,6.0,56,0.00,,,0.00,meteohub,2013-06-11 18:46:00,
2013-06-11 14:51:00,95.2,75.4,30.06,SSE,150,0.0,6.0,53,0.00,,,0.00,meteohub,2013-06-11 18:51:00,
2013-06-11 14:57:00,95.2,75.9,30.06,WNW,297,0.0,2.0,54,0.00,,,0.00,meteohub,2013-06-11 18:57:00,
2013-06-11 15:02:00,95.5,75.7,30.06,WSW,248,0.0,2.0,53,0.00,,,0.00,meteohub,2013-06-11 19:02:00,
2013-06-11 15:07:00,94.5,75.7,30.05,SSW,210,0.0,0.0,55,0.00,,,0.00,meteohub,2013-06-11 19:07:00,
2013-06-11 15:12:00,93.9,75.7,30.05,South,181,0.0,4.0,56,0.00,,,0.00,meteohub,2013-06-11 19:12:00,
2013-06-11 15:17:00,94.6,77.0,30.05,South,180,0.0,4.0,57,0.00,,,0.00,meteohub,2013-06-11 19:17:00,
2013-06-11 15:22:00,94.5,75.7,30.04,SW,226,0.0,1.0,55,0.00,,,0.00,meteohub,2013-06-11 19:22:00,
2013-06-11 15:27:00,94.5,75.7,30.04,SW,226,0.0,1.0,55,0.00,,,0.00,meteohub,2013-06-11 19:27:00,
2013-06-11 15:32:00,94.6,77.0,30.04,SW,226,0.0,1.0,57,0.00,,,0.00,meteohub,2013-06-11 19:32:00,
2013-06-11 15:37:00,95.2,76.5,30.04,SW,226,0.0,0.0,55,0.00,,,0.00,meteohub,2013-06-11 19:37:00,
2013-06-11 15:43:00,95.7,76.5,30.04,SW,226,0.0,0.0,54,0.00,,,0.00,meteohub,2013-06-11 19:43:00,
2013-06-11 15:48:00,95.2,75.9,30.04,SW,231,3.0,0.0,54,0.00,,,0.00,meteohub,2013-06-11 19:48:00,
2013-06-11 15:53:00,94.1,75.9,30.04,NNW,344,0.0,6.0,56,0.00,,,0.00,meteohub,2013-06-11 19:53:00,
2013-06-11 15:58:00,94.5,76.8,30.03,South,180,0.0,6.0,57,0.00,,,0.00,meteohub,2013-06-11 19:58:00,
2013-06-11 16:03:00,95.2,77.0,30.03,WSW,251,0.0,6.0,56,0.00,,,0.00,meteohub,2013-06-11 20:03:00,
2013-06-11 16:08:00,95.2,76.5,30.03,SW,214,0.0,4.0,55,0.00,,,0.00,meteohub,2013-06-11 20:08:00,
2013-06-11 16:13:00,95.2,76.5,30.03,SW,232,0.0,4.0,55,0.00,,,0.00,meteohub,2013-06-11 20:13:00,
2013-06-11 16:18:00,95.0,76.3,30.03,WSW,246,0.0,6.0,55,0.00,,,0.00,meteohub,2013-06-11 20:18:00,
2013-06-11 16:23:00,94.6,75.9,30.03,South,184,5.0,6.0,55,0.00,,,0.00,meteohub,2013-06-11 20:23:00,
2013-06-11 16:29:00,93.7,75.7,30.03,SW,215,0.0,6.0,56,0.00,,,0.00,meteohub,2013-06-11 20:29:00,
2013-06-11 16:34:00,93.6,77.0,30.03,SW,219,0.0,10.0,59,0.00,,,0.00,meteohub,2013-06-11 20:34:00,
2013-06-11 16:39:00,94.3,76.6,30.03,South,169,1.0,10.0,57,0.00,,,0.00,meteohub,2013-06-11 20:39:00,
2013-06-11 16:44:00,94.5,77.4,30.03,SW,223,0.0,4.0,58,0.00,,,0.00,meteohub,2013-06-11 20:44:00,
2013-06-11 16:49:00,93.9,76.8,30.03,SSW,209,0.0,6.0,58,0.00,,,0.00,meteohub,2013-06-11 20:49:00,
2013-06-11 16:54:00,92.8,77.4,30.02,WSW,246,3.0,6.0,61,0.00,,,0.00,meteohub,2013-06-11 20:54:00,
2013-06-11 16:59:00,91.8,76.8,30.03,SW,215,1.0,6.0,62,0.00,,,0.00,meteohub,2013-06-11 20:59:00,
2013-06-11 17:04:00,91.0,76.3,30.02,SSW,195,0.0,6.0,62,0.00,,,0.00,meteohub,2013-06-11 21:04:00,
2013-06-11 17:10:00,90.9,76.5,30.02,SW,233,0.0,5.0,63,0.00,,,0.00,meteohub,2013-06-11 21:10:00,
2013-06-11 17:15:00,91.0,76.3,30.02,SW,233,0.0,3.0,62,0.00,,,0.00,meteohub,2013-06-11 21:15:00,
2013-06-11 17:20:00,91.0,76.6,30.01,SSW,199,0.0,1.0,63,0.00,,,0.00,meteohub,2013-06-11 21:20:00,
2013-06-11 17:25:00,91.4,76.1,30.01,SSW,205,0.0,1.0,61,0.00,,,0.00,meteohub,2013-06-11 21:25:00,
2013-06-11 17:30:00,91.8,75.4,30.01,SSE,163,0.0,1.0,59,0.00,,,0.00,meteohub,2013-06-11 21:30:00,
2013-06-11 17:35:00,91.9,76.6,30.01,SSE,156,5.0,5.0,61,0.00,,,0.00,meteohub,2013-06-11 21:35:00,
2013-06-11 17:40:00,92.5,77.5,30.01,SE,134,0.0,7.0,62,0.00,,,0.00,meteohub,2013-06-11 21:40:00,
2013-06-11 17:46:00,92.7,76.8,30.01,SSW,211,1.0,7.0,60,0.00,,,0.00,meteohub,2013-06-11 21:46:00,
2013-06-11 17:51:00,92.5,76.6,30.01,WSW,240,0.0,8.0,60,0.00,,,0.00,meteohub,2013-06-11 21:51:00,
2013-06-11 17:56:00,92.8,76.8,30.01,SSW,207,0.0,8.0,60,0.00,,,0.00,meteohub,2013-06-11 21:56:00,
2013-06-11 18:01:00,93.4,76.5,30.01,SW,217,0.0,8.0,58,0.00,,,0.00,meteohub,2013-06-11 22:01:00,
2013-06-11 18:07:00,93.7,76.3,30.01,SSW,213,0.0,3.0,57,0.00,,,0.00,meteohub,2013-06-11 22:07:00,
2013-06-11 18:12:00,93.6,77.0,30.01,SW,225,0.0,4.0,59,0.00,,,0.00,meteohub,2013-06-11 22:12:00,
2013-06-11 18:17:00,93.7,76.6,30.01,SW,236,0.0,4.0,58,0.00,,,0.00,meteohub,2013-06-11 22:17:00,
2013-06-11 18:22:00,93.2,76.3,30.01,SSW,207,0.0,4.0,58,0.00,,,0.00,meteohub,2013-06-11 22:22:00,
2013-06-11 18:27:00,93.4,77.4,30.00,West,269,0.0,7.0,60,0.00,,,0.00,meteohub,2013-06-11 22:27:00,
2013-06-11 18:32:00,93.4,76.5,30.00,SW,224,0.0,7.0,58,0.00,,,0.00,meteohub,2013-06-11 22:32:00,
2013-06-11 18:37:00,92.8,76.8,30.00,NNW,329,0.0,0.0,60,0.00,,,0.00,meteohub,2013-06-11 22:37:00,
2013-06-11 18:42:00,93.4,76.8,30.00,WSW,244,0.0,0.0,59,0.00,,,0.00,meteohub,2013-06-11 22:42:00,
2013-06-11 18:47:00,93.9,76.3,29.99,WSW,244,0.0,0.0,57,0.00,,,0.00,meteohub,2013-06-11 22:47:00,
2013-06-11 18:52:00,93.9,76.3,29.99,WSW,238,0.0,0.0,57,0.00,,,0.00,meteohub,2013-06-11 22:52:00,
2013-06-11 18:57:00,93.7,77.2,29.99,WSW,238,0.0,0.0,59,0.00,,,0.00,meteohub,2013-06-11 22:57:00,
2013-06-11 19:02:00,93.4,76.5,29.99,South,191,0.0,0.0,58,0.00,,,0.00,meteohub,2013-06-11 23:02:00,
2013-06-11 19:07:00,93.2,76.6,29.99,SSW,194,0.0,3.0,59,0.00,,,0.00,meteohub,2013-06-11 23:07:00,
2013-06-11 19:12:00,93.6,77.0,29.99,SSW,194,0.0,3.0,59,0.00,,,0.00,meteohub,2013-06-11 23:12:00,
2013-06-11 19:18:00,93.2,76.3,29.99,SSW,192,0.0,3.0,58,0.00,,,0.00,meteohub,2013-06-11 23:18:00,
2013-06-11 19:23:00,93.0,76.6,29.99,SSW,199,0.0,0.0,59,0.00,,,0.00,meteohub,2013-06-11 23:23:00,
2013-06-11 19:28:00,92.5,76.6,29.99,SW,227,0.0,0.0,60,0.00,,,0.00,meteohub,2013-06-11 23:28:00,
2013-06-11 19:33:00,91.8,76.5,29.99,SW,227,0.0,1.0,61,0.00,,,0.00,meteohub,2013-06-11 23:33:00,
2013-06-11 19:38:00,91.6,76.3,29.99,SW,227,0.0,1.0,61,0.00,,,0.00,meteohub,2013-06-11 23:38:00,
2013-06-11 19:43:00,91.2,75.9,29.99,SW,227,0.0,1.0,61,0.00,,,0.00,meteohub,2013-06-11 23:43:00,
2013-06-11 19:48:00,91.4,75.6,29.99,SW,227,0.0,0.0,60,0.00,,,0.00,meteohub,2013-06-11 23:48:00,
2013-06-11 19:54:00,91.6,76.6,29.99,SW,227,0.0,0.0,62,0.00,,,0.00,meteohub,2013-06-11 23:54:00,
2013-06-11 19:59:00,91.8,76.5,29.99,SW,227,0.0,0.0,61,0.00,,,0.00,meteohub,2013-06-11 23:59:00,
2013-06-11 20:04:00,91.8,76.5,29.99,SW,227,0.0,0.0,61,0.00,,,0.00,meteohub,2013-06-12 00:04:00,
2013-06-11 20:09:00,91.4,76.5,30.00,SW,227,0.0,0.0,62,0.00,,,0.00,meteohub,2013-06-12 00:09:00,
2013-06-11 20:14:00,91.2,76.3,30.00,SW,227,0.0,0.0,62,0.00,,,0.00,meteohub,2013-06-12 00:14:00,
2013-06-11 20:19:00,91.6,76.6,30.00,SW,227,0.0,0.0,62,0.00,,,0.00,meteohub,2013-06-12 00:19:00,
2013-06-11 20:24:00,91.8,76.8,30.00,SW,227,0.0,0.0,62,0.00,,,0.00,meteohub,2013-06-12 00:24:00,
2013-06-11 20:30:00,91.9,77.5,30.00,SW,227,0.0,0.0,63,0.00,,,0.00,meteohub,2013-06-12 00:30:00,
2013-06-11 20:35:00,91.8,76.8,30.00,SW,227,0.0,0.0,62,0.00,,,0.00,meteohub,2013-06-12 00:35:00,
2013-06-11 20:40:00,90.3,77.9,30.01,SSW,202,0.0,7.0,67,0.00,,,0.00,meteohub,2013-06-12 00:40:00,
2013-06-11 20:45:00,88.9,77.4,30.01,SSE,161,7.0,9.0,69,0.00,,,0.00,meteohub,2013-06-12 00:45:00,
2013-06-11 20:50:00,87.6,77.5,30.01,South,190,2.0,9.0,72,0.00,,,0.00,meteohub,2013-06-12 00:50:00,
2013-06-11 20:55:00,86.7,77.4,30.01,SSE,159,1.0,8.0,74,0.00,,,0.00,meteohub,2013-06-12 00:55:00,
2013-06-11 21:00:00,86.4,77.5,30.01,South,182,0.0,8.0,75,0.00,,,0.00,meteohub,2013-06-12 01:00:00,
2013-06-11 21:05:00,86.2,77.7,30.01,SSE,165,6.0,7.0,76,0.00,,,0.00,meteohub,2013-06-12 01:05:00,
2013-06-11 21:10:00,85.6,77.5,30.01,South,182,3.0,11.0,77,0.00,,,0.00,meteohub,2013-06-12 01:10:00,
2013-06-11 21:16:00,85.1,78.3,30.01,SSE,150,5.0,11.0,80,0.00,,,0.00,meteohub,2013-06-12 01:16:00,
2013-06-11 21:21:00,84.4,78.6,30.01,South,169,2.0,11.0,83,0.00,,,0.00,meteohub,2013-06-12 01:21:00,
2013-06-11 21:26:00,83.7,78.3,30.01,SSW,208,0.0,7.0,84,0.00,,,0.00,meteohub,2013-06-12 01:26:00,
2013-06-11 21:31:00,83.3,78.3,30.02,SSW,208,0.0,7.0,85,0.00,,,0.00,meteohub,2013-06-12 01:31:00,
2013-06-11 21:36:00,82.9,77.9,30.02,SSW,208,0.0,6.0,85,0.00,,,0.00,meteohub,2013-06-12 01:36:00,
2013-06-11 21:41:00,82.8,78.1,30.02,SSW,208,0.0,1.0,86,0.00,,,0.00,meteohub,2013-06-12 01:41:00,
2013-06-11 21:46:00,82.6,78.3,30.02,SSW,208,0.0,1.0,87,0.00,,,0.00,meteohub,2013-06-12 01:46:00,
2013-06-11 21:52:00,82.2,77.9,30.02,SSW,208,0.0,1.0,87,0.00,,,0.00,meteohub,2013-06-12 01:52:00,
2013-06-11 21:57:00,82.0,78.1,30.02,SSW,208,0.0,2.0,88,0.00,,,0.00,meteohub,2013-06-12 01:57:00,
2013-06-11 22:02:00,82.0,77.7,30.03,SSW,208,0.0,2.0,87,0.00,,,0.00,meteohub,2013-06-12 02:02:00,
2013-06-11 22:07:00,82.0,78.1,30.03,SSW,208,0.0,2.0,88,0.00,,,0.00,meteohub,2013-06-12 02:07:00,
2013-06-11 22:12:00,82.0,78.1,30.03,SSW,208,0.0,0.0,88,0.00,,,0.00,meteohub,2013-06-12 02:12:00,
2013-06-11 22:17:00,81.9,77.9,30.04,SSW,208,0.0,2.0,88,0.00,,,0.00,meteohub,2013-06-12 02:17:00,
2013-06-11 22:22:00,81.7,77.4,30.04,SSW,208,0.0,2.0,87,0.00,,,0.00,meteohub,2013-06-12 02:22:00,
2013-06-11 22:27:00,81.7,77.7,30.03,SSW,208,0.0,2.0,88,0.00,,,0.00,meteohub,2013-06-12 02:27:00,
2013-06-11 22:33:00,81.3,77.0,30.03,SSW,208,0.0,2.0,87,0.00,,,0.00,meteohub,2013-06-12 02:33:00,
2013-06-11 22:38:00,81.3,77.4,30.04,SSW,208,0.0,2.0,88,0.00,,,0.00,meteohub,2013-06-12 02:38:00,
2013-06-11 22:43:00,81.1,76.8,30.04,SSW,196,0.0,0.0,87,0.00,,,0.00,meteohub,2013-06-12 02:43:00,
2013-06-11 22:48:00,81.0,76.6,30.04,SSW,196,0.0,3.0,87,0.00,,,0.00,meteohub,2013-06-12 02:48:00,
2013-06-11 22:53:00,80.8,76.8,30.04,South,191,0.0,3.0,88,0.00,,,0.00,meteohub,2013-06-12 02:53:00,
2013-06-11 22:58:00,80.6,76.6,30.04,South,191,0.0,1.0,88,0.00,,,0.00,meteohub,2013-06-12 02:58:00,
2013-06-11 23:04:00,80.4,76.5,30.04,South,191,0.0,1.0,88,0.00,,,0.00,meteohub,2013-06-12 03:04:00,
2013-06-11 23:09:00,80.4,76.5,30.04,South,191,0.0,1.0,88,0.00,,,0.00,meteohub,2013-06-12 03:09:00,
2013-06-11 23:14:00,80.4,76.5,30.04,South,191,0.0,1.0,88,0.00,,,0.00,meteohub,2013-06-12 03:14:00,
2013-06-11 23:19:00,80.4,76.5,30.05,South,191,0.0,1.0,88,0.00,,,0.00,meteohub,2013-06-12 03:19:00,
2013-06-11 23:24:00,80.4,76.5,30.04,South,191,0.0,1.0,88,0.00,,,0.00,meteohub,2013-06-12 03:24:00,
2013-06-11 23:30:00,80.4,76.5,30.04,South,191,0.0,1.0,88,0.00,,,0.00,meteohub,2013-06-12 03:30:00,
2013-06-11 23:35:00,80.4,76.8,30.04,South,191,0.0,0.0,89,0.00,,,0.00,meteohub,2013-06-12 03:35:00,
2013-06-11 23:40:00,80.4,76.8,30.05,South,191,0.0,3.0,89,0.00,,,0.00,meteohub,2013-06-12 03:40:00,
2013-06-11 23:45:00,80.4,76.8,30.04,South,191,0.0,0.0,89,0.00,,,0.00,meteohub,2013-06-12 03:45:00,
2013-06-11 23:50:00,80.6,77.0,30.05,South,191,0.0,0.0,89,0.00,,,0.00,meteohub,2013-06-12 03:50:00,
2013-06-11 23:55:00,80.6,77.0,30.05,South,191,0.0,0.0,89,0.00,,,0.00,meteohub,2013-06-12 03:55:00,